Regional Weather Roundup
Issued by NWS Wilmington, NC

Home | Current Version | Previous Version | Text Only | Print | Product List | Glossary On
Versions: 1 2 3 4 5 6 7 8 9 10 11 12 13 14 15 16 17 18 19 20 21 22 23 24 25 26 27 28 29 30 31 32 33 34 35 36 37 38 39 40 41 42 43 44 45 46 47 48 49 50
000
ASUS42 KILM 030513
RWRILM
RWRILM
REGIONAL HOURLY WEATHER ROUNDUP
NATIONAL WEATHER SERVICE WILMINGTON NC
100 AM EDT WED JUN 03 2015

NOTE: "FAIR" INDICATES FEW OR NO CLOUDS BELOW 12,000 FEET WITH NO
SIGNIFICANT WEATHER AND/OR OBSTRUCTIONS TO VISIBILITY.

...............WFO WILMINGTON COUNTY WARNING AREA...............

......COASTAL NC AND SC COUNTIES......

CITY           SKY/WX    TMP DP  RH WIND       PRES   REMARKS
WILMINGTON     CLOUDY    72  70  93 NE3       29.98F
N MYRTLE BEACH MOCLDY    77  71  82 W9        29.98S THUNDER
MYRTLE BEACH   MOCLDY    75  70  83 SW3       30.00S

......INLAND NC AND SC COUNTIES.......

CITY           SKY/WX    TMP DP  RH WIND       PRES   REMARKS
LUMBERTON      TSTM      68  66  93 NW10      29.99F FOG
ELIZABETHTOWN  MOCLDY    70  70 100 E3        29.99F
WHITEVILLE     MOCLDY    71  69  94 CALM      29.98F
FLORENCE       RAIN      67  65  93 E8        29.99F
DARLINGTON     CLOUDY    66  63  88 SE8       29.99F

....................REST OF NORTH CAROLINA......................

.........EASTERN NC.........

CITY           SKY/WX    TMP DP  RH WIND       PRES   REMARKS
CAPE HATTERAS  CLOUDY    72  67  84 SW3       30.01F
JACKSONVILLE   CLOUDY    66  63  88 CALM      30.00F
MOREHEAD CITY  CLOUDY    73  65  75 SE3       30.00F
KENANSVILLE    CLOUDY    69  68  97 CALM      30.01F FOG
NEW BERN       CLOUDY    69  67  93 CALM      30.01F FOG
ELIZABETH CITY CLOUDY    68  67  96 NE8       30.03F

.........CENTRAL NC.........

CITY           SKY/WX    TMP DP  RH WIND       PRES   REMARKS
RALEIGH DURHAM CLOUDY    68  65  90 E5        30.02S
ROCKY MOUNT    CLOUDY    70  69  97 CALM      30.01F
ROANOKE RAPIDS NOT AVBL
FAYETTEVILLE   CLOUDY    67  66  97 NE5       30.00S
HOFFMAN        RAIN      66  65  97 E6        30.02F

.........WESTERN NC.........

CITY           SKY/WX    TMP DP  RH WIND       PRES   REMARKS
CHARLOTTE      CLOUDY    65  61  87 N6        30.01F
GREENSBORO     CLOUDY    65  64  97 NE8       30.03S
HICKORY        NOT AVBL
BOONE          NOT AVBL
ASHEVILLE      NOT AVBL

.....................REST OF SOUTH CAROLINA.....................

.........EASTERN SC.........

CITY           SKY/WX    TMP DP  RH WIND       PRES   REMARKS
CHARLESTON     CLOUDY    73  70  90 CALM      29.97S
BEAUFORT MCAS  CLOUDY    73  70  90 N5        29.96F
HILTON HEAD    NOT AVBL

.........CENTRAL SC.........

CITY           SKY/WX    TMP DP  RH WIND       PRES   REMARKS
COLUMBIA       CLOUDY    68  65  90 N5        29.98R
ORANGEBURG     CLOUDY    69  65  86 E3        29.99S
SUMTER SHAW    CLOUDY    67  63  86 E3        29.97S

.........WESTERN SC.........

CITY           SKY/WX    TMP DP  RH WIND       PRES   REMARKS
GREENVILLE     NOT AVBL
ROCK HILL      CLOUDY    66  64  93 NW5       30.01S
ANDERSON       CLOUDY    66  62  87 E13       29.99F
CLEMSON        NOT AVBL
GREENWOOD      LGT RAIN  67  65  93 NW3       30.01S


...................COASTAL AND OFFSHORE REPORTS..................

................LOCAL PIERS AND NC RESERVE................


STATION/POSITION TIME  SKY/WX   TEMP    WIND        PRES    VSBY
                                AIR SEA DIR/SP/G
                 (UTC)          (F)     (DEG/KT/KT) (MB)    (MI)
JOHNY MRCER PIER 0400            78 79  150/ 11/ 12 1015.2F
NC RESRV MASNBRO NOT AVBL
OCEAN CREST PIER 0402            79 82  130/  9/ 11 1014.9S
SPRINGMAID  PIER 0400            78 79  190/ 12/ 13 1015.2F


................COASTAL AND OFFSHORE BUOYS................


STATION/POSITION TIME  SKY/WX   TEMP    WIND        PRES    VSBY
                                AIR SEA DIR/SP/G
                 (UTC)          (F)     (DEG/KT/KT) (MB)    (MI)
DIMNDSHOAL 41025 0450            77 81  270/  2/  4 1016.2F
WVE H/P(F/S)=  3/ 8 SWL H/P/D(F/S/D)=  3/ 90/ 8

CAPE LOOKOUT     0500            75      30/  6/  7 1015.9F
ONSLOW BAY 41036 NOT AVBL
5 WRITEBCH 41038 0408            79 78  170/ 10/ 14 1015.6F
MASONBORO  41110 0419               79                N/A
WVE H/P(F/S)=  2/ 9 WND WVE H/P(F/S)=  2/ 9

WILM HARBR 41108 0411               79                N/A
WVE H/P(F/S)=  2/ 8 WND WVE H/P(F/S)=  2/ 8

27WRITEBCH 41037 0400               78  170/  6/  6   N/A
FRYING PAN 41013 0450            78 77  180/ 14/ 17 1016.0F
WVE H/P(F/S)=  3/ 8 WND WVE H/P(F/S)=  2/ 6 SWL H/P/D(F/S/D)=  2/110/ 8

SUNST NRSH 41024 0408            77     190/ 10/ 14 1015.3S
CAPRS NRSH 41029 0408            79     220/ 10/ 12 1015.1F
EDISTO     41004 0450            80 80  190/  8/ 10 1014.7F
WVE H/P(F/S)=  2/ 8 WND WVE H/P(F/S)=  2/ 3 SWL H/P/D(F/S/D)=  2/ 8



..........OFFSHORE BUOYS BEYOND 100 NM OFFSHORE...........
.....IN A TRIANGLE---HAT TO BERMUDA TO BAHAMAS TO HAT.....


STATION/POSITION TIME  SKY/WX   TEMP    WIND        PRES    VSBY
                                AIR SEA DIR/SP/G
                 (UTC)          (F)     (DEG/KT/KT) (MB)    (MI)
150E HAT   41001 NOT AVBL
W BERMUDA  41048 0450            75 77  130/  6/  8 1018.3F
WVE H/P(F/S)=  3/ 8 SWL H/P/D(F/S/D)=  3/130/ 8

ATLANTIC S 41049 0450            78 79  150/ 10/ 12 1018.4F
WVE H/P(F/S)=  4/ 8 WND WVE H/P(F/S)=  2/ 5 SWL H/P/D(F/S/D)=  3/110/ 8

E BAHAMAS  41046 0450            81 82  110/ 10/ 14 1016.5F
WVE H/P(F/S)=  4/ 8 WND WVE H/P(F/S)=  2/ 5 SWL H/P/D(F/S/D)=  3/ 60/ 8

NE BAHAMAS 41047 0450            80 81  130/  8/ 10 1016.7F
WVE H/P(F/S)=  3/ 8 SWL H/P/D(F/S/D)=  3/100/ 8

120E CANVRL41010 0420            79 81  150/  8/ 10 1016.1F

END


USA.gov is the U.S. government's official web portal to all federal, state and local government web resources and services.